Tracking 29892 objects as of 21-Nov-2024
HD Live streaming from Space Station
objects crossing your sky now

STARLINK-2153

Track STARLINK-2153 now!
10-day predictions
STARLINK-2153 is classified as:


NORAD ID: 48009
Int'l Code: 2021-024AJ
Perigee: 553.3 km
Apogee: 555.4 km
Inclination: 53.1 °
Period: 95.6 minutes
Semi major axis: 6925 km
RCS: Unknown
Launch date: March 24, 2021
Source: United States (US)
Launch site: AIR FORCE EASTERN TEST RANGE (AFETR)
Your satellite tracking list
Your tracking list is empty




NASA's NSSDC Master Catalog

Two Line Element Set (TLE):
1 48009U 21024AJ  24325.29417121  .00003549  00000-0  25700-3 0  9991
2 48009  53.0541 286.2596 0001547  98.8399 261.2765 15.06402170203282
Source of the keplerian elements: AFSPC